This demonstration page uses our WeatherBlox Daily Observations layout. Learn more.

38.89511, -77.03637

Hourly Observations for July 2, 2020

Temp ( °F °C ) Dew Point ( °F °C ) Humidity (%) Winds ( mph kmh ) Pressure ( in mb ) Visibility ( mi km ) Precip ( " mm )
12:52 am 00:52 Mostly Clear 75 23.9 70 21.1 84 84 SSW 6 9 29.89 1012 10 16.0934 0 0
1:52 am 01:52 Mostly Clear 76 24.4 67 19.4 74 74 NNW 3 6 29.87 1012 10 16.0934 0 0
2:52 am 02:52 Mostly Clear 73 22.8 67 19.4 81 81 NNW 3 6 29.86 1011 10 16.0934 0 0
3:52 am 03:52 Mostly Clear 72 22.2 66 18.9 82 82 N 7 11 29.86 1011 10 16.0934 0 0
4:52 am 04:52 Mostly Clear 72 22.2 66 18.9 82 82 NW 7 11 29.87 1011 10 16.0934 0 0
5:52 am 05:52 Mostly Sunny 72 22.2 65 18.3 79 79 NNW 7 11 29.88 1012 10 16.0934 0 0
6:52 am 06:52 Mostly Sunny 74 23.3 65 18.3 74 74 NNW 7 11 29.9 1012 10 16.0934 0 0
7:52 am 07:52 Mostly Sunny 76 24.4 65 18.3 69 69 NNW 10 17 29.9 1013 10 16.0934 0 0
8:52 am 08:52 Mostly Sunny 80 26.7 66 18.9 62 62 N 9 15 29.91 1013 10 16.0934 0 0
9:52 am 09:52 Sunny 83 28.3 65 18.3 55 55 N 8 13 29.91 1013 10 16.0934 0 0
10:52 am 10:52 Mostly Sunny 86 30 64 17.8 48 48 N 10 17 29.91 1013 10 16.0934 0 0
11:52 am 11:52 Partly Cloudy 88 31.1 63 17.2 43 43 NE 12 19 29.91 1013 10 16.0934 0 0
12:52 pm 12:52 Partly Cloudy 88 31.1 64 17.8 45 45 N 13 20 29.91 1013 10 16.0934 0 0
1:52 pm 13:52 Partly Cloudy 88 31.1 62 16.7 42 42 N 9 15 29.9 1013 10 16.0934 0 0
2:52 pm 14:52 Partly Cloudy 91 32.8 62 16.7 38 38 NNE 8 13 29.89 1012 10 16.0934 0 0
3:52 pm 15:52 Mostly Cloudy 91 32.8 61 16.1 37 37 WNW 6 9 29.88 1012 10 16.0934 0 0
4:52 pm 16:52 Mostly Cloudy 92 33.3 62 16.7 37 37 N 9 15 29.87 1012 10 16.0934 0 0
5:52 pm 17:52 Partly Cloudy 91 32.8 62 16.7 38 38 N 8 13 29.86 1011 10 16.0934 0 0
6:52 pm 18:52 Partly Cloudy 90 32.2 62 16.7 39 39 NNE 7 11 29.85 1011 10 16.0934 0 0
7:52 pm 19:52 Partly Cloudy 89 31.7 63 17.2 42 42 WNW 7 11 29.86 1011 10 16.0934 0 0
8:52 pm 20:52 Partly Cloudy 86 30 63 17.2 46 46 NW 6 9 29.86 1011 10 16.0934 0 0
9:52 pm 21:52 Partly Cloudy 85 29.4 63 17.2 48 48 WNW 5 7 29.88 1012 10 16.0934 0 0
10:52 pm 22:52 Partly Cloudy 83 28.3 65 18.3 55 55 SW 3 6 29.89 1012 10 16.0934 0 0
11:52 pm 23:52 Mostly Clear 81 27.2 66 18.9 61 61 Calm 29.89 1012 10 16.0934 0 0

Powered by AerisWeather